TimeCST,TemperatureF,Dew PointF,Humidity,Sea Level PressureIn,VisibilityMPH,Wind Direction,Wind SpeedMPH,Gust SpeedMPH,PrecipitationIn,Events,Conditions,WindDirDegrees,DateUTC
12:15 AM,62.6,55.4,77,30.10,10.0,SSE,15.0,-,N/A,,Clear,150,2012-11-11 06:15:00
12:35 AM,62.6,55.4,77,30.10,10.0,SE,16.1,21.9,N/A,,Clear,140,2012-11-11 06:35:00
12:55 AM,62.6,55.4,77,30.10,10.0,SSE,13.8,19.6,N/A,,Clear,150,2012-11-11 06:55:00
1:15 AM,62.6,55.4,77,30.09,10.0,SSE,13.8,18.4,N/A,,Clear,150,2012-11-11 07:15:00
1:35 AM,62.6,55.4,77,30.09,10.0,SSE,13.8,19.6,N/A,,Clear,160,2012-11-11 07:35:00
1:55 AM,62.6,55.4,77,30.09,10.0,SSE,12.7,20.7,N/A,,Clear,160,2012-11-11 07:55:00
2:15 AM,62.6,55.4,77,30.09,10.0,SSE,11.5,-,N/A,,Clear,160,2012-11-11 08:15:00
2:35 AM,62.6,55.4,77,30.09,10.0,SSE,11.5,-,N/A,,Clear,150,2012-11-11 08:35:00
2:55 AM,62.6,55.4,77,30.08,10.0,SE,11.5,-,N/A,,Clear,140,2012-11-11 08:55:00
3:15 AM,62.6,55.4,77,30.08,10.0,SE,11.5,-,N/A,,Clear,140,2012-11-11 09:15:00
3:35 AM,62.6,55.4,77,30.07,10.0,SE,12.7,-,N/A,,Clear,140,2012-11-11 09:35:00
3:55 AM,62.6,55.4,77,30.07,10.0,SE,12.7,19.6,N/A,,Clear,140,2012-11-11 09:55:00
4:15 AM,62.6,57.2,82,30.08,10.0,SSE,16.1,20.7,N/A,,Clear,150,2012-11-11 10:15:00
4:35 AM,62.6,57.2,82,30.08,10.0,SE,13.8,-,N/A,,Clear,140,2012-11-11 10:35:00
4:55 AM,62.6,57.2,82,30.08,10.0,SSE,12.7,-,N/A,,Clear,150,2012-11-11 10:55:00
5:35 AM,62.6,57.2,82,30.09,10.0,SE,10.4,-,N/A,,Clear,140,2012-11-11 11:35:00
5:55 AM,62.6,59.0,88,30.09,10.0,SE,10.4,19.6,N/A,,Clear,140,2012-11-11 11:55:00
6:15 AM,62.6,59.0,88,30.10,10.0,SE,9.2,-,N/A,,Scattered Clouds,140,2012-11-11 12:15:00
6:55 AM,62.6,59.0,88,30.11,10.0,SE,11.5,-,N/A,,Partly Cloudy,140,2012-11-11 12:55:00
7:35 AM,62.6,60.8,94,30.12,10.0,SE,9.2,-,N/A,,Scattered Clouds,140,2012-11-11 13:35:00
7:56 AM,64.4,60.8,88,30.11,10.0,SE,10.4,-,N/A,,Clear,140,2012-11-11 13:56:00
8:15 AM,66.2,60.8,83,30.12,10.0,SE,13.8,17.3,N/A,,Clear,140,2012-11-11 14:15:00
8:35 AM,66.2,60.8,83,30.12,10.0,SE,12.7,-,N/A,,Clear,140,2012-11-11 14:35:00
9:15 AM,69.8,60.8,73,30.12,10.0,SE,17.3,25.3,N/A,,Clear,140,2012-11-11 15:15:00
9:35 AM,69.8,60.8,73,30.12,10.0,SE,19.6,26.5,N/A,,Clear,140,2012-11-11 15:35:00
9:55 AM,71.6,60.8,69,30.12,10.0,SSE,17.3,27.6,N/A,,Scattered Clouds,160,2012-11-11 15:55:00
10:15 AM,73.4,60.8,65,30.11,10.0,South,15.0,25.3,N/A,,Mostly Cloudy,170,2012-11-11 16:15:00
10:35 AM,73.4,60.8,65,30.11,10.0,SSE,24.2,29.9,N/A,,Scattered Clouds,160,2012-11-11 16:35:00
11:15 AM,75.2,60.8,61,30.10,10.0,SSE,16.1,26.5,N/A,,Clear,150,2012-11-11 17:15:00
11:35 AM,75.2,60.8,61,30.09,10.0,SSE,19.6,29.9,N/A,,Clear,150,2012-11-11 17:35:00
11:55 AM,75.2,60.8,61,30.08,10.0,SSE,16.1,24.2,N/A,,Clear,160,2012-11-11 17:55:00
12:15 PM,75.2,62.6,65,30.07,10.0,SSE,16.1,20.7,N/A,,Scattered Clouds,160,2012-11-11 18:15:00
12:35 PM,75.2,62.6,65,30.05,10.0,SSE,18.4,23.0,N/A,,Partly Cloudy,150,2012-11-11 18:35:00
12:55 PM,75.2,60.8,61,30.04,10.0,SSE,17.3,23.0,N/A,,Scattered Clouds,160,2012-11-11 18:55:00
1:15 PM,77.0,60.8,57,30.03,10.0,SE,19.6,26.5,N/A,,Mostly Cloudy,140,2012-11-11 19:15:00
1:35 PM,78.8,60.8,54,30.02,10.0,SSE,20.7,26.5,N/A,,Scattered Clouds,160,2012-11-11 19:35:00
1:55 PM,77.0,60.8,57,30.02,10.0,SSE,19.6,28.8,N/A,,Mostly Cloudy,160,2012-11-11 19:55:00
2:15 PM,75.2,60.8,61,30.02,10.0,SSE,15.0,24.2,N/A,,Mostly Cloudy,150,2012-11-11 20:15:00
2:35 PM,75.2,62.6,65,30.01,10.0,SSE,21.9,27.6,N/A,,Mostly Cloudy,150,2012-11-11 20:35:00
2:55 PM,75.2,62.6,65,30.01,10.0,SSE,17.3,27.6,N/A,,Mostly Cloudy,160,2012-11-11 20:55:00
3:15 PM,75.2,62.6,65,30.02,10.0,SSE,13.8,-,N/A,,Mostly Cloudy,150,2012-11-11 21:15:00
3:35 PM,75.2,60.8,61,30.01,10.0,SSE,19.6,33.4,N/A,,Mostly Cloudy,150,2012-11-11 21:35:00
3:55 PM,75.2,60.8,61,30.01,10.0,SE,20.7,24.2,N/A,,Scattered Clouds,140,2012-11-11 21:55:00
4:35 PM,73.4,62.6,69,30.02,10.0,SSE,18.4,25.3,N/A,,Mostly Cloudy,150,2012-11-11 22:35:00
4:55 PM,73.4,62.6,69,30.02,10.0,SSE,17.3,25.3,N/A,,Scattered Clouds,160,2012-11-11 22:55:00
5:15 PM,73.4,62.6,69,30.03,10.0,SSE,17.3,24.2,N/A,,Partly Cloudy,150,2012-11-11 23:15:00
5:35 PM,73.4,62.6,69,30.03,10.0,SSE,18.4,23.0,N/A,,Partly Cloudy,150,2012-11-11 23:35:00
5:55 PM,73.4,62.6,69,30.03,10.0,SE,18.4,25.3,N/A,,Partly Cloudy,140,2012-11-11 23:55:00
6:15 PM,71.6,62.6,73,30.03,10.0,SSE,20.7,28.8,N/A,,Clear,150,2012-11-12 00:15:00
6:35 PM,71.6,62.6,73,30.04,10.0,SSE,16.1,26.5,N/A,,Mostly Cloudy,160,2012-11-12 00:35:00
6:55 PM,71.6,62.6,73,30.04,10.0,SSE,23.0,28.8,N/A,,Mostly Cloudy,150,2012-11-12 00:55:00
7:15 PM,71.6,62.6,73,30.04,10.0,SSE,18.4,26.5,N/A,,Partly Cloudy,160,2012-11-12 01:15:00
7:35 PM,71.6,62.6,73,30.03,10.0,SSE,20.7,27.6,N/A,,Clear,160,2012-11-12 01:35:00
7:55 PM,71.6,62.6,73,30.06,10.0,South,15.0,23.0,N/A,Thunderstorm,Partly Cloudy,170,2012-11-12 01:55:00
8:15 PM,71.6,62.6,73,30.06,10.0,SSE,13.8,20.7,N/A,,Scattered Clouds,160,2012-11-12 02:15:00
8:35 PM,71.6,62.6,73,30.06,10.0,SSE,21.9,28.8,N/A,,Mostly Cloudy,160,2012-11-12 02:35:00
9:15 PM,68.0,64.4,88,30.07,10.0,SSE,12.7,17.3,N/A,,Overcast,160,2012-11-12 03:15:00
9:35 PM,68.0,66.2,94,30.07,8.0,South,10.4,-,N/A,,Overcast,180,2012-11-12 03:35:00
9:55 PM,66.2,66.2,100,30.08,9.0,South,9.2,-,N/A,Thunderstorm,Thunderstorm,190,2012-11-12 03:55:00
10:15 PM,66.2,66.2,100,30.09,5.0,WSW,6.9,-,N/A,Thunderstorm,Overcast,240,2012-11-12 04:15:00
10:35 PM,66.2,66.2,100,30.10,9.0,West,9.2,-,N/A,Thunderstorm,Overcast,270,2012-11-12 04:35:00
10:55 PM,66.2,66.2,100,30.10,8.0,WSW,4.6,-,0.27,,Overcast,250,2012-11-12 04:55:00